Flag for Germany Weather past 2 weeks in Alfeld (Leine), Lower Saxony, Germany

Now
37 °F

Passing clouds.


Feels Like: 27 °F
Forecast: 33 / 42 °F
Wind: 18 mph from West

Location: Hannover

Current Time: Apr 1, 2015 at 6:14:37 AM

Latest Report: Apr 1, 2015 at 5:20 AM


Visibility: N/A

Pressure: 29.65 "Hg

Humidity: 87%

Dew point: 34 °F

Location of Alfeld (Leine)Location

Historic Weather in Alfeld (Leine) — Graph

°F

Alfeld (Leine) temperature yesterday

Maximum temperature yesterday: 50 °F (at 10:20 AM)
Minimum temperature yesterday: 36 °F (at 3:50 AM)
Average temperature yesterday: 43 °F

Past Weeks' High & Low Weather Summary

 TemperatureHumidityPressure
High61 °F (Mar 18, 2:20 PM)100% (Mar 17, 5:50 AM)30.39 "Hg (Mar 17, 5:50 AM)
Low28 °F (Mar 20, 3:50 AM)36% (Mar 18, 2:20 PM)29.03 "Hg (Mar 31, 7:50 AM)
Average43 °F78%29.91 "Hg
* Reported Mar 17 3:20 AM — Apr 1 4:20 AM, Alfeld (Leine), Weather by CustomWeather, © 2015

Note: Actual official high and low records may vary slightly from our data, if they occured in-between our weather recording intervals... More about our weather records

Advertising

Alfeld (Leine) weather history for previous 24 hours

 ConditionsComfort  
Time TempWeatherWind HumidityBarometerVisibility
4:20 AM
Wed, Apr 1
37 °FPassing clouds.16 mph87%29.65 "HgN/A
3:50 AM36 °FPartly cloudy.13 mph93%29.65 "HgN/A
3:20 AM37 °FSprinkles. Partly cloudy.25 mph87%29.65 "HgN/A
2:50 AM39 °FPassing clouds.20 mph81%29.62 "HgN/A
2:20 AM37 °FSprinkles. Passing clouds.18 mph87%29.62 "HgN/A
1:50 AM39 °FScattered showers. Passing clouds.17 mph81%29.59 "HgN/A
1:20 AM37 °FScattered showers. Passing clouds.20 mph87%29.59 "HgN/A
12:50 AM39 °FSprinkles. Partly cloudy.25 mph81%29.59 "Hg4 mi
12:20 AM39 °FScattered showers. Passing clouds.16 mph81%29.59 "HgN/A
11:50 PM
Tue, Mar 31
37 °FPassing clouds.17 mph87%29.59 "HgN/A
11:20 PM37 °FSprinkles. Partly cloudy.26 mph87%29.56 "HgN/A
10:50 PM37 °FRain showers. Partly cloudy.36 mph87%29.56 "Hg1 mi
10:20 PM41 °FSprinkles. Partly cloudy.21 mph81%29.56 "Hg5 mi
9:50 PM39 °FPassing clouds.14 mph87%29.56 "HgN/A
9:20 PM39 °FPassing clouds.20 mph87%29.56 "HgN/A
8:50 PM39 °FSprinkles. Partly sunny.25 mph87%29.53 "Hg5 mi
8:20 PM39 °FSprinkles. Partly sunny.32 mph87%29.53 "Hg3 mi
7:50 PM45 °FSprinkles. Partly sunny.25 mph61%29.50 "HgN/A
7:20 PM45 °FScattered clouds.28 mph57%29.47 "HgN/A
6:50 PM45 °FPartly sunny.29 mph66%29.47 "HgN/A
6:20 PM45 °FBroken clouds.32 mph66%29.45 "HgN/A
5:50 PM45 °FSprinkles. Broken clouds.40 mph66%29.42 "HgN/A
5:20 PM46 °FBroken clouds.36 mph62%29.39 "HgN/A
4:50 PM45 °FLight rain. More clouds than sun.50 mph71%29.36 "HgN/A
4:20 PM45 °FMore clouds than sun.40 mph76%29.33 "HgN/A
3:50 PM45 °FSprinkles. Broken clouds.41 mph81%29.30 "HgN/A
3:20 PM45 °FSprinkles. Broken clouds.38 mph81%29.27 "Hg5 mi
2:50 PM46 °FSprinkles. Partly sunny.32 mph76%29.27 "HgN/A
2:20 PM45 °FSprinkles. Broken clouds.32 mph81%29.24 "Hg4 mi
1:50 PM46 °FSprinkles. Partly sunny.30 mph76%29.21 "HgN/A
1:20 PM50 °FBroken clouds.30 mph62%29.18 "HgN/A
12:50 PM50 °FBroken clouds.40 mph67%29.18 "HgN/A
12:20 PM48 °FBroken clouds.31 mph76%29.15 "HgN/A
11:50 AM46 °FSprinkles. Broken clouds.31 mph82%29.15 "HgN/A
11:20 AM46 °FSprinkles. Partly sunny.30 mph87%29.15 "HgN/A
10:50 AM50 °FBroken clouds.29 mph71%29.12 "HgN/A
10:20 AM50 °FPartly sunny.33 mph71%29.12 "HgN/A
9:50 AM48 °FPartly sunny.26 mph82%29.09 "HgN/A
9:20 AM48 °FBroken clouds.28 mph82%29.09 "HgN/A
8:50 AM48 °FPartly sunny.25 mph82%29.06 "HgN/A
8:20 AM48 °FLight rain. Broken clouds.26 mph82%29.06 "HgN/A
7:50 AM48 °FLight rain. Partly cloudy.22 mph87%29.03 "HgN/A
7:20 AM41 °FLight rain. Passing clouds.16 mph100%29.06 "Hg3 mi
6:50 AM39 °FLight rain. Passing clouds.16 mph100%29.09 "Hg4 mi
6:20 AM37 °FLight rain. Passing clouds.18 mph100%29.12 "Hg6 mi
Weather by CustomWeather, © 2015

See weather overviewHow to use our weather pages